[[{"header":{"parameterUnit":"m.s-1","parameterCategory":1,"la1":30.2991,"la2":30.254,"lo1":-89.0895,"lo2":-89.0444,"dy":0.0017,"dx":0.0017,"nx":28,"ny":28,"refTime":"2024-06-27T21:00:00:Z","depth":0,"parameterNumber":2,"parameterNumberName":"U-component_of_WINDS"},"data":[0,0,0,0,0,0,0,0,0,0,0,0,0,0,0,0,0,0,0,0,0,0,0,0,0,0,0,0,0,0,0,0,0,0,0,0,0,0,0,0,0,0,0,0,0,0,0,0,0,0,0,0,0,0,0,0,0,0,5.2105,5.2105,0,5.2122,5.2122,5.2122,5.1975,5.1971,5.1967,5.1963,5.1982,5.1986,5.199,0,0,0,0,0,0,0,0,0,0,0,0,0,5.1947,5.1951,5.2105,5.2105,5.2105,5.2122,5.2122,5.2122,5.1976,5.1971,5.1966,5.1961,5.1981,5.1986,5.1991,0,0,0,0,0,0,0,0,0,0,0,0,0,5.1995,5.1952,5.2105,5.2034,5.2028,5.2122,5.2122,5.2122,5.1977,5.1971,5.1965,5.1959,5.1979,5.1985,5.1991,5.2154,0,0,5.2011,5.2014,0,0,0,0,0,0,0,0,5.1993,5.2001,5.2044,5.2039,5.2033,5.204,5.2073,5.2133,5.1978,5.1996,5.1963,5.1956,5.2006,5.201,5.2027,5.2155,5.2156,5.2012,5.2016,5.2018,5.202,0,0,0,0,0,0,0,5.199,5.2,5.2111,5.2045,5.2038,5.2002,5.2002,5.2084,5.2036,5.1994,5.1984,5.1988,5.2002,5.2021,5.2026,5.2156,5.2012,5.2017,5.2021,5.2024,5.2416,5.2423,0,0,0,0,0,0,5.1996,5.1998,5.2111,5.2112,5.1997,5.201,5.201,5.2044,5.2034,5.2027,5.1993,5.1981,5.2013,5.2019,5.2026,5.2213,5.2018,5.2024,5.2028,5.241,5.2418,5.2425,0,0,0,0,0,0,5.1993,5.2007,5.211,5.2052,5.2062,5.2019,5.2058,5.2047,5.2066,5.2033,5.2024,5.2021,5.2008,5.2017,5.2123,5.2212,5.2027,5.2033,5.2402,5.2412,5.2421,5.2591,0,0,0,0,0,0,5.1989,5.2007,5.2068,5.2055,5.2066,5.2206,5.2064,5.2052,5.2077,5.2062,5.2057,5.205,5.2004,5.2114,5.2129,5.2218,5.2038,5.2394,5.2407,5.2418,5.2577,5.2605,5.2629,0,0,0,0,0,5.1984,5.2116,5.2072,5.2086,5.2141,5.2212,5.2218,5.2162,5.2085,5.2146,5.2125,5.205,5.2201,5.2126,5.2142,5.2234,5.2388,5.2403,5.2417,5.2565,5.26,5.2629,0,0,0,0,0,0,5.214,5.2112,5.2063,5.2195,5.2207,5.2187,5.2261,5.2201,5.2235,5.2219,5.2148,5.2149,5.2266,5.2261,5.2178,5.239,5.2281,5.23,5.2388,5.242,5.2446,5.2443,5.2044,0,0,0,0,0,5.2191,5.225,5.2222,5.2341,5.2349,5.2305,5.2334,5.229,5.2299,5.2304,5.229,5.2303,5.2353,5.2387,5.2431,5.2577,5.2573,5.2648,5.2674,5.2696,5.2712,5.2786,5.2819,5.2473,5.2473,5.2473,0,0,5.2294,5.2286,5.2328,5.2372,5.2376,5.2439,5.231,5.2383,5.2428,5.2315,5.2412,5.2404,5.2413,5.254,5.2594,5.2539,5.2807,5.2715,5.2732,5.2736,5.2805,5.2838,5.2867,5.2483,5.2482,5.248,0,0,5.2513,5.2515,5.2612,5.2619,5.2627,5.2597,5.2621,5.2611,5.26,5.2697,5.2613,5.2667,5.2755,5.2765,5.2781,5.3007,5.2938,5.3023,5.3159,5.3232,5.3259,5.3283,5.336,5.3389,5.304,5.3041,5.3041,0,5.264,5.2731,5.267,5.2747,5.2769,5.267,5.2768,5.2778,5.2801,5.2818,5.2756,5.2863,5.2863,5.2989,5.3044,5.3062,5.3085,5.3021,5.3261,5.3284,5.3305,5.3378,5.3407,5.305,5.3049,5.3048,5.3047,0,5.2886,5.295,5.3029,5.3051,5.3083,5.3171,5.3123,5.3162,5.3116,5.3093,5.3193,5.319,5.323,5.3258,5.3215,5.3378,5.3343,5.3273,5.3161,5.3349,5.3416,5.3444,5.3065,5.3061,5.3058,5.3056,0,0,5.32,5.319,5.3219,5.3228,5.323,5.3279,5.3363,5.3403,5.3436,5.3457,5.3523,5.3601,5.3535,5.3555,5.3512,5.3577,5.3752,5.3498,5.3497,5.3542,5.3929,5.3979,5.4012,5.3709,5.3714,5.3718,5.3927,0,5.3411,5.3552,5.35,5.3645,5.3703,5.3611,5.3683,5.3693,5.3675,5.3721,5.3701,5.3755,5.3667,5.3677,5.3738,5.3718,5.3828,5.3703,5.3769,5.3772,5.3765,5.4048,5.4101,5.4298,5.3953,5.3958,5.3961,0,5.3675,5.3705,5.3855,5.3846,5.3869,5.3935,5.3966,5.4013,5.4023,5.4004,5.4027,5.397,5.4051,5.3943,5.4054,5.3969,5.3994,5.3989,5.3995,5.3995,5.3875,5.4052,5.4359,5.4387,5.4002,5.3999,5.3996,0,5.3885,5.3963,5.4062,5.4073,5.4067,5.4116,5.4115,5.4119,5.4146,5.4175,5.4191,5.423,5.425,5.4282,5.4236,5.4163,5.4353,5.4241,5.4338,5.4339,5.4378,5.4375,5.4689,5.4402,5.4402,5.4401,5.44,0,5.4123,5.4218,5.4156,5.4217,5.432,5.4261,5.4365,5.4355,5.4359,5.4416,5.4341,5.4396,5.4335,5.4384,5.435,5.4445,5.4456,5.4443,5.4431,5.4447,5.4448,5.4458,5.4442,5.4409,5.4407,5.4406,5.4404,0,5.4373,5.4336,5.4438,5.4424,5.4423,5.45,5.4487,5.4543,5.452,5.4593,5.4607,5.4571,5.4625,5.4585,5.4639,5.4616,5.474,5.4712,5.4736,5.4727,5.4824,5.4814,5.5152,5.5192,5.4884,5.4887,5.4889,0,5.4525,5.4596,5.459,5.4622,5.4627,5.4681,5.4708,5.4654,5.4685,5.4702,5.4755,5.4803,5.4838,5.4929,5.4908,5.4949,5.4918,5.5034,5.4924,5.4936,5.4915,5.491,5.4915,5.5055,5.5059,5.5062,5.5064,0,5.4798,5.4777,5.4818,5.4855,5.4889,5.4915,5.4935,5.4966,5.4911,5.495,5.5005,5.5032,5.5087,5.5135,5.5168,5.5168,5.5107,5.51,5.5124,5.5137,5.5147,5.5139,5.4792,5.5091,5.5089,5.5087,5.5085,5.5084,5.5001,5.5058,5.5063,5.5112,5.5122,5.5142,5.5193,5.5177,5.5221,5.5261,5.5227,5.5292,5.53,5.5338,5.5346,5.5395,5.5347,5.5383,5.5391,5.5399,5.5411,5.5143,5.5402,5.5401,5.54,5.54,5.5399,0,5.5266,5.5265,5.5311,5.5341,5.538,5.5321,5.534,5.5376,5.5433,5.5446,5.5482,5.5545,5.5591,5.5574,5.5615,5.5658,5.5631,5.567,5.5664,5.5664,5.5454,5.5427,5.5691,5.5691,5.5691,5.5691,5.5691,5.5691,5.5408,5.5501,5.5481,5.5579,5.5577,5.5639,5.5655,5.5673,5.5683,5.5755,5.5793,5.5783,5.5783,5.5824,5.5863,5.5857,5.5874,5.5923,5.5906,5.5709,5.568,5.5652,5.5626,5.5928,5.5929,5.6112,5.6114,5.6115]},{"header":{"parameterUnit":"m.s-1","parameterCategory":1,"la1":30.2991,"la2":30.254,"lo1":-89.0895,"lo2":-89.0444,"dy":0.0017,"dx":0.0017,"nx":28,"ny":28,"refTime":"2024-06-27T21:00:00:Z","depth":0,"parameterNumber":3,"parameterNumberName":"V-component_of_WINDS"},"data":[0,0,0,0,0,0,0,0,0,0,0,0,0,0,0,0,0,0,0,0,0,0,0,0,0,0,0,0,0,0,0,0,0,0,0,0,0,0,0,0,0,0,0,0,0,0,0,0,0,0,0,0,0,0,0,0,0,0,3.6778,3.678,0,3.7004,3.7006,3.7009,3.708,3.7079,3.7078,3.7077,3.7306,3.7313,3.732,0,0,0,0,0,0,0,0,0,0,0,0,0,3.6404,3.6411,3.6778,3.678,3.6783,3.7003,3.7007,3.701,3.708,3.7079,3.7077,3.7076,3.7304,3.7312,3.7321,0,0,0,0,0,0,0,0,0,0,0,0,0,3.6592,3.6413,3.6777,3.6845,3.6853,3.7003,3.7007,3.701,3.708,3.7079,3.7077,3.7075,3.7301,3.7311,3.7322,3.742,0,0,3.7355,3.7359,0,0,0,0,0,0,0,0,3.6581,3.6606,3.6832,3.6841,3.685,3.7012,3.6959,3.7148,3.7081,3.6994,3.7077,3.7075,3.7209,3.7228,3.7273,3.7431,3.744,3.7355,3.7362,3.7367,3.737,0,0,0,0,0,0,0,3.6568,3.6596,3.6867,3.6835,3.6846,3.6863,3.6888,3.6995,3.7108,3.7001,3.7007,3.7033,3.7214,3.7263,3.7279,3.7444,3.7355,3.7365,3.7371,3.7375,3.7692,3.7694,0,0,0,0,0,0,3.6544,3.6585,3.686,3.6874,3.6709,3.6871,3.6899,3.6962,3.7107,3.7128,3.7034,3.7035,3.7246,3.7267,3.7288,3.7412,3.7366,3.7376,3.7383,3.769,3.7693,3.7695,0,0,0,0,0,0,3.6536,3.6568,3.6851,3.6731,3.6768,3.688,3.6949,3.6967,3.7016,3.7132,3.7152,3.7064,3.7245,3.7273,3.7387,3.7421,3.7381,3.7391,3.7688,3.7691,3.7694,3.7661,0,0,0,0,0,0,3.6525,3.6564,3.6603,3.6732,3.6775,3.6947,3.6951,3.6973,3.7034,3.7038,3.7165,3.7184,3.7246,3.737,3.7397,3.7435,3.7399,3.7685,3.7689,3.7693,3.766,3.7663,3.7666,0,0,0,0,0,3.6511,3.6585,3.6605,3.6638,3.6826,3.6948,3.6973,3.7043,3.7037,3.7077,3.7151,3.718,3.7413,3.7381,3.7412,3.7454,3.7683,3.7688,3.7693,3.7659,3.7662,3.7665,0,0,0,0,0,0,3.6457,3.6603,3.6627,3.6744,3.6833,3.696,3.7013,3.7045,3.7137,3.7137,3.722,3.7248,3.7355,3.7416,3.7378,3.7556,3.7549,3.756,3.7513,3.7517,3.752,3.7503,3.7408,0,0,0,0,0,3.6459,3.6547,3.6669,3.6761,3.6805,3.6901,3.6957,3.7003,3.7099,3.7137,3.7219,3.731,3.7404,3.7464,3.7556,3.7668,3.7697,3.7712,3.7715,3.7717,3.7725,3.7789,3.7797,3.771,3.771,3.771,0,0,3.6464,3.6554,3.6605,3.6753,3.6827,3.6916,3.6932,3.7025,3.7092,3.7151,3.7264,3.7327,3.7434,3.7547,3.7601,3.7601,3.7756,3.7722,3.7723,3.7731,3.7795,3.7803,3.781,3.7713,3.7712,3.7712,0,0,3.6518,3.6595,3.668,3.6755,3.6868,3.6931,3.6951,3.7073,3.7118,3.7232,3.7278,3.7358,3.7517,3.7592,3.765,3.7732,3.7762,3.7759,3.7774,3.7835,3.7842,3.7849,3.7878,3.7888,3.7767,3.7767,3.7767,0,3.651,3.6646,3.672,3.6811,3.6875,3.6932,3.7019,3.7087,3.7224,3.7266,3.7264,3.7465,3.7541,3.7673,3.7692,3.7738,3.7763,3.7746,3.7836,3.7843,3.785,3.7879,3.789,3.7766,3.7766,3.7766,3.7766,0,3.663,3.6724,3.6779,3.6911,3.698,3.7068,3.7155,3.7216,3.7256,3.7319,3.7435,3.7527,3.764,3.7674,3.7714,3.7812,3.7808,3.7819,3.7814,3.7856,3.7885,3.7896,3.7765,3.7765,3.7765,3.7766,0,0,3.6658,3.6829,3.6848,3.6908,3.7036,3.711,3.72,3.7311,3.7362,3.7454,3.7532,3.7665,3.7676,3.7743,3.7791,3.7845,3.7903,3.785,3.7854,3.7857,3.8017,3.8008,3.8019,3.7924,3.7926,3.7928,3.8008,0,3.6729,3.6894,3.6962,3.7095,3.7183,3.7238,3.7317,3.7403,3.7465,3.7547,3.7614,3.7707,3.7715,3.7756,3.7811,3.7884,3.7936,3.7879,3.7997,3.8,3.7969,3.8034,3.8026,3.8097,3.8019,3.8021,3.8023,0,3.6834,3.6927,3.7069,3.7187,3.7226,3.7296,3.7403,3.7481,3.758,3.762,3.7694,3.774,3.7836,3.7823,3.7957,3.7916,3.7968,3.8011,3.8016,3.803,3.8014,3.8051,3.8121,3.8132,3.8041,3.804,3.8038,0,3.684,3.7001,3.7107,3.7157,3.7297,3.7345,3.7405,3.7503,3.7564,3.7657,3.7698,3.78,3.7856,3.7934,3.8005,3.799,3.8132,3.8126,3.8168,3.8167,3.8197,3.8194,3.8276,3.8228,3.8228,3.8228,3.8228,0,3.6913,3.6997,3.7112,3.7177,3.7273,3.7351,3.7444,3.7508,3.7594,3.7672,3.7725,3.7797,3.7887,3.797,3.8026,3.8128,3.8153,3.8188,3.8202,3.8184,3.8179,3.822,3.8217,3.8231,3.823,3.823,3.8229,0,3.6936,3.7016,3.7136,3.7258,3.7291,3.7357,3.7461,3.7526,3.7589,3.7687,3.7715,3.7814,3.7914,3.7993,3.8124,3.8161,3.8269,3.8284,3.8236,3.8243,3.8282,3.8277,3.8394,3.8413,3.8351,3.8351,3.8351,0,3.6978,3.7044,3.7174,3.7231,3.7291,3.7381,3.7445,3.7523,3.7587,3.7704,3.7755,3.7859,3.7947,3.8105,3.8188,3.8288,3.8306,3.834,3.8322,3.8301,3.8308,3.8303,3.831,3.8343,3.8343,3.8343,3.8343,0,3.7043,3.7079,3.7169,3.7273,3.7348,3.7434,3.752,3.7563,3.7657,3.7726,3.783,3.7898,3.8031,3.8134,3.8243,3.8304,3.8339,3.8348,3.8364,3.8346,3.8316,3.8333,3.8243,3.8346,3.8345,3.8345,3.8345,3.8345,3.7077,3.7139,3.724,3.7339,3.7412,3.7492,3.7559,3.7631,3.7719,3.7835,3.7875,3.7982,3.8079,3.8229,3.829,3.8375,3.8377,3.8398,3.8404,3.8409,3.8407,3.8301,3.8394,3.8394,3.8394,3.8395,3.8395,0,3.7145,3.7213,3.7303,3.7423,3.75,3.7527,3.7624,3.7687,3.7781,3.7868,3.7954,3.8073,3.8173,3.8264,3.8368,3.8417,3.8436,3.8442,3.844,3.8453,3.8399,3.8376,3.8425,3.8425,3.8425,3.8425,3.8425,3.8425,3.719,3.7296,3.7344,3.7487,3.7554,3.766,3.7713,3.7787,3.7858,3.7989,3.8072,3.8131,3.822,3.8331,3.8423,3.8447,3.8483,3.8485,3.8513,3.8461,3.8457,3.8453,3.8432,3.8492,3.8492,3.8561,3.8562,3.8562]}]]